Location: Goettingen
(51.5300°N, 9.9433°E)
Time: 08:48:35
(UTC+02:00)

ISS - Visible Passes

Search period start: 28 May 2017 00:00
Search period end: 07 June 2017 00:00
Orbit: 402 x 408 km, 51.6° (Epoch: 28 May)

Date Brightness Start Highest point End Pass type
(mag) Time Alt. Az. Time Alt. Az. Time Alt. Az.
28 May -3.8 00:06:23 10° W 00:09:41 86° N 00:13:00 10° E visible
28 May -3.9 01:42:55 10° W 01:46:10 60° SSW 01:47:25 32° SE visible
28 May -1.4 03:19:56 10° W 03:19:57 10° W 03:19:57 10° W visible
28 May -3.9 23:14:19 10° W 23:17:38 89° SSE 23:20:57 10° E visible
29 May -4.0 00:50:51 10° W 00:54:09 77° SSW 00:56:01 23° ESE visible
29 May -1.9 02:27:33 10° W 02:28:37 17° WSW 02:28:37 17° WSW visible
29 May -3.9 22:22:17 10° WSW 22:25:35 77° SSE 22:28:53 10° E visible
29 May -3.9 23:58:47 10° W 00:02:06 89° S 00:05:09 12° E visible
30 May -2.9 01:35:21 10° W 01:37:45 33° WSW 01:37:45 33° WSW visible
30 May -3.8 23:06:43 10° W 23:10:01 86° N 23:13:20 10° E visible
31 May -3.7 00:43:14 10° W 00:46:28 53° SSW 00:47:05 44° SSE visible
31 May -3.8 22:14:37 10° W 22:17:56 88° N 22:21:14 10° E visible
31 May -3.9 23:51:08 10° W 23:54:26 71° SSW 23:56:29 21° ESE visible
01 Jun -1.8 01:27:56 10° W 01:29:07 17° WSW 01:29:07 17° WSW visible
01 Jun -3.9 22:59:03 10° W 23:02:22 85° S 23:05:40 10° ESE visible
02 Jun -3.0 00:35:39 10° W 00:38:36 33° SSW 00:38:36 33° SSW visible
02 Jun -3.5 23:43:27 10° W 23:46:39 47° SSW 23:48:06 27° SE visible
03 Jun -3.8 22:51:19 10° W 22:54:36 64° SSW 22:57:38 12° ESE visible
04 Jun -2.1 00:28:15 10° W 00:30:17 19° SW 00:30:17 19° SW visible
04 Jun -2.7 23:35:50 10° W 23:38:44 28° SSW 23:39:51 23° S visible
05 Jun -3.2 22:43:35 10° W 22:46:43 41° SSW 22:49:26 13° SE visible
06 Jun -1.3 00:21:54 10° SW 00:22:05 10° SW 00:22:05 10° SW visible
06 Jun -1.9 23:28:28 10° W 23:30:39 17° SW 23:31:42 15° SSW visible
